Total_Precipitation_Accumulation
0.89 1.07 1.35 1.66 2.06 2.67 3.30 3.42 2.94 2.46 2.03 1.74 1.47 1.22 1.00 0.93 0.88 0.74 0.69 0.69 0.71 0.74 0.83 0.72 0.80 0.95 0.95 0.92 0.98 1.04 0.96 0.81 0.98 1.04 0.75 0.60 0.56 0.58 0.54 0.50 0.50 0.45 0.50
1.08 1.35 1.69 1.88 2.14 2.52 2.90 2.84 2.35 1.86 1.37 1.06 0.95 0.83 0.70 0.61 0.51 0.48 0.52 0.49 0.55 0.63 0.72 0.66 0.58 0.63 0.65 0.60 0.65 0.82 0.84 0.74 0.87 0.96 0.83 0.58 0.53 0.49 0.37 0.42 0.42 0.42 0.51
1.01 1.50 1.97 2.16 2.25 2.24 2.06 1.86 1.42 0.92 0.68 0.51 0.48 0.43 0.41 0.41 0.33 0.30 0.33 0.32 0.35 0.39 0.47 0.50 0.50 0.55 0.62 0.61 0.61 0.65 0.69 0.63 0.64 0.79 0.90 0.69 0.47 0.40 0.37 0.39 0.39 0.45 0.58
0.88 1.52 1.79 1.76 1.73 1.61 1.23 0.93 0.72 0.48 0.34 0.31 0.34 0.34 0.31 0.31 0.27 0.24 0.25 0.24 0.24 0.27 0.30 0.33 0.34 0.41 0.52 0.59 0.54 0.55 0.58 0.57 0.50 0.56 0.65 0.66 0.60 0.53 0.41 0.39 0.44 0.48 0.59
0.62 0.89 0.96 0.99 0.99 0.87 0.70 0.57 0.51 0.41 0.39 0.38 0.39 0.40 0.29 0.24 0.22 0.21 0.20 0.21 0.24 0.26 0.27 0.28 0.28 0.31 0.35 0.39 0.42 0.49 0.52 0.54 0.50 0.49 0.56 0.63 0.66 0.65 0.57 0.45 0.45 0.44 0.41
0.41 0.52 0.51 0.47 0.45 0.36 0.38 0.40 0.50 0.54 0.46 0.37 0.32 0.32 0.28 0.24 0.21 0.18 0.19 0.20 0.22 0.26 0.29 0.30 0.30 0.32 0.33 0.34 0.36 0.40 0.44 0.50 0.54 0.53 0.56 0.65 0.70 0.65 0.65 0.57 0.49 0.47 0.42
0.37 0.42 0.46 0.44 0.34 0.26 0.28 0.29 0.30 0.32 0.32 0.29 0.28 0.27 0.27 0.25 0.23 0.20 0.16 0.17 0.19 0.23 0.27 0.32 0.34 0.37 0.37 0.37 0.38 0.38 0.41 0.47 0.55 0.56 0.54 0.57 0.63 0.69 0.71 0.65 0.56 0.59 0.59
0.27 0.27 0.28 0.27 0.21 0.17 0.14 0.12 0.13 0.13 0.14 0.14 0.17 0.18 0.22 0.20 0.20 0.23 0.19 0.17 0.20 0.24 0.28 0.29 0.30 0.34 0.36 0.38 0.40 0.37 0.36 0.46 0.55 0.60 0.68 0.66 0.59 0.74 0.82 0.78 0.77 0.74 0.78
0.11 0.12 0.09 0.09 0.09 0.08 0.07 0.08 0.06 0.06 0.06 0.07 0.10 0.12 0.17 0.19 0.18 0.20 0.19 0.19 0.25 0.26 0.28 0.29 0.30 0.32 0.35 0.38 0.40 0.41 0.45 0.52 0.56 0.63 0.77 0.83 0.78 0.78 0.83 0.89 0.93 0.98 0.94
0.04 0.04 0.05 0.04 0.03 0.02 0.03 0.03 0.03 0.03 0.04 0.04 0.05 0.07 0.10 0.13 0.15 0.15 0.18 0.21 0.21 0.22 0.27 0.32 0.34 0.34 0.35 0.43 0.50 0.49 0.50 0.58 0.68 0.80 0.89 0.93 0.95 0.94 0.87 0.91 0.96 0.98 1.04
0.01 0.01 0.02 0.02 0.02 0.02 0.01 0.02 0.02 0.02 0.02 0.02 0.03 0.04 0.06 0.08 0.11 0.14 0.16 0.19 0.19 0.21 0.24 0.30 0.34 0.35 0.42 0.60 0.78 0.76 0.68 0.74 0.83 0.93 1.03 1.07 1.12 1.12 1.01 0.96 0.94 0.94 1.02
0.00 0.00 0.00 0.01 0.01 0.01 0.01 0.02 0.02 0.02 0.02 0.02 0.02 0.03 0.05 0.06 0.07 0.09 0.13 0.16 0.19 0.18 0.18 0.20 0.25 0.28 0.34 0.50 0.81 0.99 1.01 0.98 0.91 0.96 1.12 1.20 1.17 1.08 1.02 1.02 0.98 0.96 1.04
0.01 0.01 0.01 0.01 0.01 0.01 0.02 0.02 0.02 0.02 0.02 0.02 0.02 0.02 0.02 0.04 0.05 0.07 0.10 0.13 0.17 0.18 0.18 0.19 0.24 0.29 0.30 0.37 0.58 0.80 0.92 0.95 0.92 0.97 1.02 1.05 1.12 1.10 1.02 0.97 0.94 0.93 1.04
0.01 0.01 0.01 0.01 0.01 0.02 0.02 0.02 0.02 0.03 0.02 0.02 0.02 0.03 0.02 0.03 0.05 0.07 0.09 0.12 0.16 0.17 0.21 0.24 0.29 0.31 0.27 0.28 0.41 0.57 0.68 0.74 0.78 0.84 0.89 0.92 0.96 1.02 1.07 1.01 0.96 0.98 1.00
0.01 0.01 0.01 0.01 0.02 0.03 0.03 0.04 0.04 0.04 0.03 0.04 0.05 0.05 0.05 0.05 0.05 0.07 0.10 0.11 0.12 0.13 0.19 0.26 0.29 0.27 0.24 0.29 0.41 0.46 0.42 0.47 0.53 0.56 0.58 0.69 0.85 0.95 1.01 0.96 0.94 0.98 0.99
0.03 0.03 0.03 0.03 0.03 0.03 0.04 0.04 0.04 0.05 0.06 0.08 0.10 0.09 0.10 0.10 0.10 0.11 0.11 0.12 0.14 0.18 0.21 0.23 0.26 0.25 0.21 0.26 0.30 0.28 0.27 0.30 0.35 0.38 0.37 0.38 0.51 0.69 0.81 0.84 0.84 0.89 0.94
0.09 0.08 0.07 0.06 0.05 0.04 0.03 0.04 0.04 0.05 0.05 0.07 0.12 0.13 0.14 0.13 0.11 0.11 0.12 0.15 0.19 0.23 0.26 0.27 0.29 0.29 0.30 0.23 0.19 0.16 0.18 0.23 0.30 0.33 0.33 0.26 0.25 0.39 0.54 0.65 0.70 0.72 0.72
0.08 0.05 0.03 0.02 0.02 0.02 0.02 0.02 0.03 0.03 0.04 0.06 0.12 0.17 0.19 0.18 0.16 0.17 0.20 0.23 0.27 0.29 0.32 0.33 0.36 0.42 0.39 0.27 0.18 0.15 0.15 0.20 0.27 0.32 0.32 0.31 0.31 0.34 0.40 0.51 0.60 0.64 0.62
0.03 0.02 0.01 0.01 0.01 0.02 0.02 0.04 0.04 0.05 0.06 0.09 0.14 0.19 0.25 0.27 0.26 0.27 0.31 0.35 0.38 0.37 0.37 0.39 0.43 0.49 0.54 0.41 0.25 0.19 0.19 0.25 0.28 0.32 0.33 0.34 0.32 0.30 0.26 0.35 0.42 0.48 0.57
0.02 0.02 0.02 0.02 0.03 0.04 0.05 0.06 0.08 0.10 0.13 0.14 0.18 0.24 0.32 0.37 0.36 0.37 0.41 0.44 0.47 0.46 0.43 0.42 0.45 0.52 0.62 0.53 0.31 0.24 0.26 0.34 0.38 0.44 0.44 0.35 0.29 0.23 0.18 0.26 0.35 0.39 0.42
0.02 0.02 0.03 0.04 0.07 0.09 0.13 0.17 0.20 0.22 0.22 0.24 0.26 0.31 0.37 0.44 0.43 0.46 0.48 0.51 0.52 0.53 0.53 0.51 0.51 0.57 0.64 0.57 0.37 0.30 0.35 0.45 0.52 0.49 0.48 0.45 0.30 0.21 0.17 0.19 0.29 0.32 0.39
0.04 0.04 0.05 0.05 0.08 0.13 0.20 0.26 0.28 0.28 0.30 0.34 0.35 0.38 0.44 0.45 0.44 0.55 0.62 0.67 0.69 0.66 0.64 0.69 0.65 0.62 0.64 0.58 0.44 0.32 0.31 0.44 0.60 0.63 0.59 0.55 0.39 0.26 0.23 0.20 0.20 0.22 0.27
0.05 0.05 0.06 0.07 0.08 0.13 0.19 0.25 0.27 0.29 0.31 0.34 0.36 0.41 0.50 0.56 0.60 0.66 0.70 0.80 0.85 0.82 0.77 0.77 0.81 0.75 0.72 0.69 0.51 0.38 0.31 0.39 0.56 0.72 0.72 0.60 0.47 0.37 0.30 0.27 0.25 0.23 0.25
0.04 0.05 0.07 0.10 0.12 0.14 0.17 0.21 0.27 0.34 0.38 0.39 0.41 0.46 0.52 0.58 0.69 0.79 0.79 0.81 0.85 0.88 0.87 0.84 0.80 0.80 0.80 0.85 0.73 0.57 0.42 0.43 0.58 0.72 0.75 0.66 0.60 0.53 0.44 0.40 0.36 0.31 0.29
0.04 0.07 0.11 0.14 0.14 0.14 0.15 0.17 0.24 0.36 0.43 0.44 0.43 0.47 0.52 0.59 0.71 0.84 0.87 0.78 0.79 0.82 0.79 0.74 0.71 0.72 0.74 0.79 0.74 0.63 0.60 0.63 0.73 0.84 0.95 0.90 0.83 0.76 0.68 0.61 0.56 0.51 0.45
0.07 0.12 0.15 0.16 0.16 0.16 0.17 0.19 0.24 0.38 0.48 0.48 0.46 0.48 0.52 0.60 0.70 0.83 0.88 0.73 0.60 0.59 0.59 0.52 0.46 0.45 0.48 0.58 0.62 0.57 0.54 0.58 0.70 0.85 1.02 0.99 0.91 0.87 0.85 0.80 0.74 0.68 0.61